• In Germany
  • List of Countries
  • For 7 days
  • Water Temperature
  • Satellite Maps
  • Weather Map
  • Weather Widgets
  • user-avatar
    Login

    Hourly Weather Ioannina

    Today, 21 October, Sunday

    Time Temperature Precipitation Wind Pressure Humidity
    00:00 +13°C° 0 mm 1 mps 688 mmHg 81%
    01:00 +12°C° 0 mm 1 mps 688 mmHg 82%
    02:00 +12°C° 0 mm 1 mps 688 mmHg 83%
    03:00 +12°C° 0 mm 1 mps 688 mmHg 83%
    04:00 +11°C° 0 mm 1 mps 687 mmHg 84%
    05:00 +12°C° 0 mm 1 mps 687 mmHg 82%
    06:00 +12°C° 0 mm 1 mps 688 mmHg 80%
    07:00 +13°C° 0 mm 1 mps 688 mmHg 78%
    08:00 +14°C° 0 mm 1 mps 688 mmHg 73%
    09:00 +15°C° 0 mm 1 mps 688 mmHg 67%
    10:00 +18°C° 0 mm 1 mps 688 mmHg 62%
    11:00 +18°C° 0.3 mm 1 mps 688 mmHg 62%
    12:00 +17°C° 0.3 mm 2 mps 688 mmHg 61%
    13:00 +17°C° 0.3 mm 2 mps 688 mmHg 61%
    14:00 +16°C° 0.6 mm 1 mps 687 mmHg 64%
    15:00 +16°C° 0.6 mm 1 mps 687 mmHg 68%
    16:00 +15°C° 0.6 mm 1 mps 687 mmHg 71%
    17:00 +14°C° 0.3 mm 1 mps 687 mmHg 75%
    18:00 +13°C° 0.3 mm 1 mps 687 mmHg 80%
    19:00 +12°C° 0.3 mm 1 mps 687 mmHg 84%
    20:00 +12°C° 0.1 mm 1 mps 687 mmHg 85%
    21:00 +12°C° 0.1 mm 1 mps 687 mmHg 87%
    22:00 +12°C° 0.1 mm 1 mps 687 mmHg 88%
    23:00 +11°C° 0.1 mm 1 mps 687 mmHg 88%

    Tomorrow, 22 October, Monday

    Time Temperature Precipitation Wind Pressure Humidity
    00:00 +10°C° 0.1 mm 2 mps 687 mmHg 88%
    01:00 +10°C° 0.1 mm 2 mps 687 mmHg 88%
    02:00 +10°C° 0 mm 2 mps 687 mmHg 88%
    03:00 +10°C° 0 mm 2 mps 687 mmHg 88%
    04:00 +10°C° 0 mm 2 mps 687 mmHg 88%
    05:00 +10°C° 0 mm 2 mps 687 mmHg 87%
    06:00 +10°C° 0 mm 2 mps 687 mmHg 86%
    07:00 +10°C° 0 mm 2 mps 687 mmHg 85%
    08:00 +12°C° 0.1 mm 2 mps 688 mmHg 80%
    09:00 +13°C° 0.1 mm 2 mps 688 mmHg 74%
    10:00 +13°C° 0.1 mm 3 mps 688 mmHg 69%
    11:00 +14°C° 0.2 mm 3 mps 688 mmHg 68%
    12:00 +14°C° 0.2 mm 3 mps 687 mmHg 67%
    13:00 +14°C° 0.2 mm 3 mps 687 mmHg 66%
    14:00 +14°C° 1 mm 2 mps 687 mmHg 72%
    15:00 +13°C° 1 mm 2 mps 686 mmHg 79%
    16:00 +12°C° 1 mm 2 mps 686 mmHg 85%
    17:00 +12°C° 1.6 mm 2 mps 686 mmHg 87%
    18:00 +12°C° 1.6 mm 2 mps 686 mmHg 89%
    19:00 +10°C° 1.6 mm 2 mps 686 mmHg 91%
    20:00 +10°C° 1.3 mm 2 mps 686 mmHg 91%
    21:00 +10°C° 1.3 mm 2 mps 686 mmHg 90%
    22:00 +10°C° 1.3 mm 2 mps 686 mmHg 90%
    23:00 +10°C° 0.5 mm 2 mps 686 mmHg 90%

    Day after tomorrow, 23 October, Tuesday

    Time Temperature Precipitation Wind Pressure Humidity
    00:00 +10°C° 0.5 mm 2 mps 686 mmHg 89%
    01:00 +10°C° 0.5 mm 2 mps 686 mmHg 89%
    02:00 +10°C° 0.7 mm 2 mps 685 mmHg 89%
    03:00 +10°C° 0.7 mm 2 mps 685 mmHg 89%
    04:00 +10°C° 0.7 mm 2 mps 685 mmHg 90%
    05:00 +10°C° 0.8 mm 3 mps 685 mmHg 90%
    06:00 +10°C° 0.8 mm 3 mps 685 mmHg 89%
    07:00 +10°C° 0.8 mm 3 mps 685 mmHg 89%
    08:00 +10°C° 0.3 mm 3 mps 685 mmHg 86%
    09:00 +11°C° 0.3 mm 3 mps 686 mmHg 83%
    10:00 +11°C° 0.3 mm 3 mps 686 mmHg 80%
    11:00 +12°C° 0.2 mm 3 mps 686 mmHg 77%
    12:00 +13°C° 0.2 mm 2 mps 686 mmHg 74%
    13:00 +14°C° 0.2 mm 2 mps 686 mmHg 71%
    14:00 +13°C° 0.1 mm 2 mps 685 mmHg 71%
    15:00 +13°C° 0.1 mm 2 mps 685 mmHg 72%
    16:00 +13°C° 0.1 mm 2 mps 685 mmHg 73%
    17:00 +12°C° 0 mm 2 mps 685 mmHg 76%
    18:00 +12°C° 0 mm 2 mps 685 mmHg 78%
    19:00 +10°C° 0 mm 2 mps 685 mmHg 81%
    20:00 +10°C° 0 mm 2 mps 685 mmHg 81%
    21:00 +9°C° 0 mm 2 mps 685 mmHg 81%
    22:00 +9°C° 0 mm 2 mps 685 mmHg 81%
    23:00 +9°C° 0 mm 2 mps 685 mmHg 80%

    24 October, Wednesday

    Time Temperature Precipitation Wind Pressure Humidity
    00:00 +9°C° 0 mm 2 mps 685 mmHg 80%
    01:00 +8°C° 0 mm 2 mps 684 mmHg 80%
    02:00 +8°C° 0 mm 2 mps 684 mmHg 79%
    03:00 +8°C° 0 mm 2 mps 683 mmHg 79%
    04:00 +8°C° 0 mm 2 mps 683 mmHg 79%
    05:00 +8°C° 0 mm 2 mps 683 mmHg 78%
    06:00 +8°C° 0 mm 2 mps 683 mmHg 76%
    07:00 +9°C° 0 mm 2 mps 683 mmHg 75%
    08:00 +12°C° 0 mm 1 mps 683 mmHg 67%
    09:00 +14°C° 0 mm 1 mps 684 mmHg 58%
    10:00 +18°C° 0 mm 1 mps 684 mmHg 50%
    11:00 +18°C° 0 mm 1 mps 683 mmHg 47%
    12:00 +18°C° 0 mm 2 mps 683 mmHg 44%
    13:00 +19°C° 0 mm 2 mps 683 mmHg 41%
    14:00 +18°C° 0 mm 2 mps 682 mmHg 45%
    15:00 +17°C° 0 mm 2 mps 682 mmHg 48%
    16:00 +16°C° 0 mm 2 mps 682 mmHg 52%
    17:00 +15°C° 0 mm 2 mps 681 mmHg 56%
    18:00 +13°C° 0 mm 2 mps 681 mmHg 59%
    19:00 +12°C° 0 mm 2 mps 681 mmHg 63%
    20:00 +10°C° 0 mm 2 mps 682 mmHg 64%
    21:00 +10°C° 0 mm 2 mps 682 mmHg 65%
    22:00 +9°C° 0 mm 2 mps 682 mmHg 66%
    23:00 +9°C° 0 mm 2 mps 682 mmHg 69%

    25 October, Thursday

    Time Temperature Precipitation Wind Pressure Humidity
    00:00 +9°C° 0 mm 3 mps 682 mmHg 71%
    01:00 +9°C° 0 mm 3 mps 682 mmHg 73%
    02:00 +8°C° 0 mm 2 mps 682 mmHg 75%
    03:00 +8°C° 0 mm 2 mps 682 mmHg 78%
    04:00 +8°C° 0 mm 2 mps 683 mmHg 80%
    05:00 +8°C° 0 mm 2 mps 683 mmHg 79%
    06:00 +8°C° 0 mm 3 mps 683 mmHg 79%
    07:00 +8°C° 0 mm 3 mps 684 mmHg 78%
    08:00 +10°C° 0 mm 3 mps 685 mmHg 66%
    09:00 +11°C° 0 mm 3 mps 685 mmHg 53%
    10:00 +13°C° 0 mm 3 mps 686 mmHg 40%
    11:00 +13°C° 0 mm 3 mps 686 mmHg 37%
    12:00 +14°C° 0 mm 3 mps 686 mmHg 33%
    13:00 +16°C° 0 mm 3 mps 686 mmHg 29%
    14:00 +14°C° 0 mm 3 mps 686 mmHg 32%
    15:00 +13°C° 0 mm 3 mps 686 mmHg 35%
    16:00 +12°C° 0 mm 3 mps 686 mmHg 38%
    17:00 +12°C° 0 mm 2 mps 686 mmHg 40%
    18:00 +9°C° 0 mm 2 mps 686 mmHg 41%
    19:00 +8°C° 0 mm 2 mps 687 mmHg 43%
    20:00 +8°C° 0 mm 2 mps 687 mmHg 44%
    21:00 +7°C° 0 mm 2 mps 687 mmHg 44%
    22:00 +7°C° 0 mm 2 mps 687 mmHg 44%
    23:00 +7°C° 0 mm 2 mps 688 mmHg 45%

    26 October, Friday

    Time Temperature Precipitation Wind Pressure Humidity
    00:00 +8°C° 0 mm 1 mps 688 mmHg 45%
    01:00 +8°C° 0 mm 1 mps 688 mmHg 46%
    02:00 +8°C° 0 mm 1 mps 688 mmHg 46%
    03:00 +8°C° 0 mm 1 mps 688 mmHg 47%
    04:00 +8°C° 0 mm 1 mps 688 mmHg 48%
    05:00 +8°C° 0 mm 1 mps 688 mmHg 48%
    06:00 +9°C° 0 mm 1 mps 688 mmHg 49%
    07:00 +9°C° 0 mm 1 mps 688 mmHg 49%
    08:00 +11°C° 0 mm 1 mps 689 mmHg 44%
    09:00 +14°C° 0 mm 1 mps 689 mmHg 38%
    10:00 +16°C° 0 mm 2 mps 690 mmHg 33%
    11:00 +17°C° 0 mm 2 mps 690 mmHg 33%
    12:00 +17°C° 0 mm 2 mps 690 mmHg 34%
    13:00 +18°C° 0 mm 2 mps 689 mmHg 35%
    14:00 +17°C° 0 mm 2 mps 689 mmHg 41%
    15:00 +16°C° 0 mm 1 mps 689 mmHg 46%
    16:00 +15°C° 0 mm 1 mps 689 mmHg 52%
    17:00 +14°C° 0 mm 1 mps 689 mmHg 58%
    18:00 +12°C° 0 mm 1 mps 689 mmHg 64%
    19:00 +11°C° 0 mm 1 mps 689 mmHg 70%
    20:00 +10°C° 0 mm 1 mps 689 mmHg 73%
    21:00 +10°C° 0 mm 1 mps 689 mmHg 75%
    22:00 +9°C° 0 mm 2 mps 689 mmHg 78%
    23:00 +9°C° 0 mm 2 mps 689 mmHg 80%
    Show more